Showing default

KUIPER-00232, 67148

Orbit data source: Space-Track

KUIPER-00232, 67148 is a payload satellite owned by Kuiper Systems (US) in LEO that was launched on Mon, 15 Dec 2025 UTC via an ATLAS V 551 launch vehicle from the Air Force Eastern Test Range (AFETR). Payload-class satellites include a variety of spacecraft equipped with specific instruments for various scientific and technological missions. These include communications satellites like Starlink; space stations such as the ISS; scientific satellites like the Hubble; Earth observation satellites from companies like Planet Labs, Umbra, and HawkEye 360; GPS; miniature CubeSats for education and research; and military/defense satellites.

Loading next visibility...
Identifier
67148, 2025-301R
Orbit
LEO
Country
Flag of USUS
Related business
Manufacturer
Kuiper Systems
Mission
Operational Commercial Communications
Bus & Motor
KUIPER, Unknown motor
Mass
~490 kg wet, ~490 kg dry
Launch date (UTC)
2025-12-15 (6 months ago)
Launch vehicle
ATLAS V 551
Launch site
Air Force Eastern Test Range (AFETR)
Object type
Payload
Rocket body
Debris
Shape & HBR
Box + 2 Pan, 3.4 m
Radar Cross Section
2.326 m², Large (>1 m²)

Expand to show TLE details & history
Last TLE update: 16 hours ago

TLE from 16 hours ago
0 KUIPER-00232
1 67148U 25301R   26171.16930942  .00003213  00000-0  45028-3 0  9999
2 67148  51.9006 332.4876 0000601 113.3506 246.7520 14.79935527 28905
Epoch: 2026-06-20T04:03Z
TLE epoch observation values (Epoch: 2026-06-20T04:03:48.333Z)
Latitude
-0.00001°
Longitude
3.14841°
Altitude
630.441 km
Speed
7.544 km/s
True Right ascension
22h 09m 57s
True Declination
0° 00' 00"
Sunlit
Object was in daylight at epoch
Visualization orbit readout
Latitude
Unknown
Longitude
Unknown
Altitude
Unknown
Speed
Unknown
Apparent Right ascension
Unknown
Apparent Declination
Unknown
Sunlit
N/A
Visualization observer readout
Local Sidereal Time
07:13:14
Azimuth
Unknown
Elevation
Unknown
Doppler factor
Unknown
Orbital elements
Apogee altitude
630.4 km
Perigee altitude
629.558 km
Semi-major axis
7,008.116 km
Eccentricity
0.00006
Inclination
51.9006°
RAAN
332.4876°
Arg. of periapsis
113.3506°
True anomaly
246.74567°
Mean anomaly
246.752°
Eccentric anomaly
246.74884°
Mean motion
3.69949 °/min
Orbital period
97.31 mins
BSTAR
0.00045028
Loading maneuver chart data...
Computing Atmospheric mass density...
Loading historical data...
Loading historical data...
Loading historical data...
Loading historical data...
Loading historical data...
Loading historical data...
Loading historical data...

Documentation

Showing up to 5 results
|